Time,TemperatureF,DewpointF,PressureIn,WindDirection,WindDirectionDegrees,WindSpeedMPH,WindSpeedGustMPH,Humidity,HourlyPrecipIn,Conditions,Clouds,dailyrainin,SoftwareType,DateUTC
2014-11-26 00:03:00,30.7,25.9,29.95,NNE,20,0.0,3.0,82,0.00,,---,0.00,VWS V14.01,2014-11-26 07:03:00,
2014-11-26 00:08:00,30.7,25.9,29.86,NNE,20,0.0,0.0,82,0.00,,---,0.00,VWS V14.01,2014-11-26 07:08:00,
2014-11-26 00:13:00,30.6,25.8,29.86,NNE,19,0.0,3.0,82,0.00,,---,0.00,VWS V14.01,2014-11-26 07:13:00,
2014-11-26 00:18:00,30.6,26.1,29.89,NNE,17,0.0,2.0,83,0.00,,---,0.00,VWS V14.01,2014-11-26 07:18:00,
2014-11-26 00:23:00,30.6,26.1,30.04,NNE,16,3.0,5.0,83,0.00,,---,0.00,VWS V14.01,2014-11-26 07:23:00,
2014-11-26 00:28:00,30.6,26.1,30.04,NNE,17,0.0,0.0,83,0.00,,---,0.00,VWS V14.01,2014-11-26 07:28:00,
2014-11-26 00:33:00,30.5,26.0,30.04,NNE,16,2.0,3.0,83,0.00,,---,0.00,VWS V14.01,2014-11-26 07:33:00,
2014-11-26 00:38:00,30.4,25.9,30.02,NNE,16,1.0,1.0,83,0.00,,---,0.00,VWS V14.01,2014-11-26 07:38:00,
2014-11-26 00:43:00,30.4,25.9,30.02,NNE,15,1.0,2.0,83,0.00,,---,0.00,VWS V14.01,2014-11-26 07:43:00,
2014-11-26 00:48:00,30.4,25.9,30.02,NNE,15,1.0,2.0,83,0.00,,---,0.00,VWS V14.01,2014-11-26 07:48:00,
2014-11-26 00:53:00,30.4,25.9,30.02,NNE,17,0.0,2.0,83,0.00,,---,0.00,VWS V14.01,2014-11-26 07:53:00,
2014-11-26 00:58:00,30.3,25.8,30.02,NNE,17,0.0,1.0,83,0.00,,---,0.00,VWS V14.01,2014-11-26 07:58:00,
2014-11-26 01:03:00,30.4,26.1,30.02,NNE,17,0.0,0.0,84,0.00,,---,0.00,VWS V14.01,2014-11-26 08:03:00,
2014-11-26 01:08:00,30.3,26.1,30.02,NNE,17,0.0,0.0,84,0.00,,---,0.00,VWS V14.01,2014-11-26 08:08:00,
2014-11-26 01:13:00,30.3,26.1,30.02,NNE,17,0.0,0.0,84,0.00,,---,0.00,VWS V14.01,2014-11-26 08:13:00,
2014-11-26 01:18:00,30.3,26.1,29.85,NNE,17,1.0,1.0,84,0.00,,---,0.00,VWS V14.01,2014-11-26 08:18:00,
2014-11-26 01:23:00,30.2,26.0,29.85,NNE,17,0.0,0.0,84,0.00,,---,0.00,VWS V14.01,2014-11-26 08:23:00,
2014-11-26 01:28:00,30.1,25.9,29.89,NNE,17,0.0,0.0,84,0.00,,---,0.00,VWS V14.01,2014-11-26 08:28:00,
2014-11-26 01:33:00,30.1,25.9,29.89,NNE,17,1.0,2.0,84,0.00,,---,0.00,VWS V14.01,2014-11-26 08:33:00,
2014-11-26 01:38:00,30.1,25.9,29.90,NNE,17,0.0,2.0,84,0.00,,---,0.00,VWS V14.01,2014-11-26 08:38:00,
2014-11-26 01:43:00,30.1,26.1,29.90,NNE,17,2.0,2.0,85,0.00,,---,0.00,VWS V14.01,2014-11-26 08:43:00,
2014-11-26 01:48:00,30.1,26.1,30.04,NNE,17,0.0,0.0,85,0.00,,---,0.00,VWS V14.01,2014-11-26 08:48:00,
2014-11-26 01:53:00,30.1,26.1,30.04,NNE,17,0.0,0.0,85,0.00,,---,0.00,VWS V14.01,2014-11-26 08:53:00,
2014-11-26 01:58:00,30.0,26.0,30.04,NNE,17,0.0,2.0,85,0.00,,---,0.00,VWS V14.01,2014-11-26 08:58:00,
2014-11-26 02:03:00,29.9,26.0,30.04,NNE,17,0.0,1.0,85,0.00,,---,0.00,VWS V14.01,2014-11-26 09:03:00,
2014-11-26 02:08:00,29.8,25.9,30.04,NNE,17,0.0,2.0,85,0.00,,---,0.00,VWS V14.01,2014-11-26 09:08:00,
2014-11-26 02:13:00,29.7,25.8,30.04,NNE,17,0.0,1.0,85,0.00,,---,0.00,VWS V14.01,2014-11-26 09:13:00,
2014-11-26 02:18:00,29.7,25.8,30.04,NNE,17,0.0,0.0,85,0.00,,---,0.00,VWS V14.01,2014-11-26 09:18:00,
2014-11-26 02:23:00,29.6,25.6,30.04,NNE,17,0.0,2.0,85,0.00,,---,0.00,VWS V14.01,2014-11-26 09:23:00,
2014-11-26 02:28:00,29.6,25.6,30.04,NNE,17,0.0,0.0,85,0.00,,---,0.00,VWS V14.01,2014-11-26 09:28:00,
2014-11-26 02:33:00,29.6,25.9,30.04,NNE,26,1.0,3.0,86,0.00,,---,0.00,VWS V14.01,2014-11-26 09:33:00,
2014-11-26 02:38:00,29.5,25.8,30.20,NNE,24,2.0,3.0,86,0.00,,---,0.00,VWS V14.01,2014-11-26 09:38:00,
2014-11-26 02:43:00,29.4,25.7,30.20,NNE,33,4.0,6.0,86,0.00,,---,0.00,VWS V14.01,2014-11-26 09:43:00,
2014-11-26 02:48:00,29.2,25.3,29.84,NE,35,0.0,4.0,85,0.00,,---,0.00,VWS V14.01,2014-11-26 09:48:00,
2014-11-26 02:53:00,28.9,24.7,29.84,NNE,26,1.0,3.0,84,0.00,,---,0.00,VWS V14.01,2014-11-26 09:53:00,
2014-11-26 02:58:00,28.7,24.5,29.84,NNE,27,2.0,3.0,84,0.00,,---,0.00,VWS V14.01,2014-11-26 09:58:00,
2014-11-26 03:03:00,28.5,24.3,29.84,NNE,17,3.0,4.0,84,0.00,,---,0.00,VWS V14.01,2014-11-26 10:03:00,
2014-11-26 03:08:00,28.4,24.2,29.84,NNE,24,5.0,7.0,84,0.00,,---,0.00,VWS V14.01,2014-11-26 10:08:00,
2014-11-26 03:13:00,28.3,24.4,29.84,NE,40,2.0,6.0,85,0.00,,---,0.00,VWS V14.01,2014-11-26 10:13:00,
2014-11-26 03:18:00,28.1,23.9,30.56,North,9,3.0,6.0,84,0.00,,---,0.00,VWS V14.01,2014-11-26 10:18:00,
2014-11-26 03:23:00,28.0,23.5,30.46,NE,37,5.0,6.0,83,0.00,,---,0.00,VWS V14.01,2014-11-26 10:23:00,
2014-11-26 03:28:00,27.8,23.3,30.46,NE,40,0.0,3.0,83,0.00,,---,0.00,VWS V14.01,2014-11-26 10:28:00,
2014-11-26 03:33:00,27.6,22.8,30.46,NE,40,3.0,4.0,82,0.00,,---,0.00,VWS V14.01,2014-11-26 10:33:00,
2014-11-26 03:38:00,27.5,22.7,30.47,NE,51,0.0,1.0,82,0.00,,---,0.00,VWS V14.01,2014-11-26 10:38:00,
2014-11-26 03:43:00,27.4,22.4,30.47,NNE,28,2.0,4.0,81,0.00,,---,0.00,VWS V14.01,2014-11-26 10:43:00,
2014-11-26 03:48:00,27.4,22.4,30.56,NE,42,1.0,4.0,81,0.01,,---,0.01,VWS V14.01,2014-11-26 10:48:00,
2014-11-26 03:53:00,27.4,22.0,30.39,NE,49,3.0,5.0,80,0.01,,---,0.01,VWS V14.01,2014-11-26 10:53:00,
2014-11-26 03:58:00,27.3,22.0,30.48,NNE,32,1.0,3.0,80,0.01,,---,0.01,VWS V14.01,2014-11-26 10:58:00,
2014-11-26 04:03:00,27.3,22.0,30.48,NE,34,4.0,4.0,80,0.01,,---,0.01,VWS V14.01,2014-11-26 11:03:00,
2014-11-26 04:08:00,27.4,22.0,30.48,NE,44,2.0,4.0,80,0.01,,---,0.01,VWS V14.01,2014-11-26 11:08:00,
2014-11-26 04:13:00,27.4,22.4,30.30,NE,44,2.0,3.0,81,0.01,,---,0.01,VWS V14.01,2014-11-26 11:13:00,
2014-11-26 04:18:00,27.4,22.4,30.30,NE,46,3.0,4.0,81,0.01,,---,0.01,VWS V14.01,2014-11-26 11:18:00,
2014-11-26 04:23:00,27.4,22.0,30.30,NE,53,2.0,3.0,80,0.01,,---,0.01,VWS V14.01,2014-11-26 11:23:00,
2014-11-26 04:28:00,27.4,22.4,30.30,NE,35,0.0,3.0,81,0.01,,---,0.01,VWS V14.01,2014-11-26 11:28:00,
2014-11-26 04:33:00,27.4,22.4,30.20,NE,41,1.0,1.0,81,0.01,,---,0.01,VWS V14.01,2014-11-26 11:33:00,
2014-11-26 04:38:00,27.5,22.7,30.30,NE,41,0.0,0.0,82,0.01,,---,0.01,VWS V14.01,2014-11-26 11:38:00,
2014-11-26 04:43:00,27.6,22.8,30.30,NE,41,0.0,0.0,82,0.01,,---,0.01,VWS V14.01,2014-11-26 11:43:00,
2014-11-26 04:48:00,27.6,22.8,30.30,NE,53,1.0,2.0,82,0.00,,---,0.01,VWS V14.01,2014-11-26 11:48:00,
2014-11-26 04:53:00,27.6,22.8,29.86,NE,56,0.0,0.0,82,0.00,,---,0.01,VWS V14.01,2014-11-26 11:53:00,
2014-11-26 04:58:00,27.6,22.8,29.86,NE,56,0.0,3.0,82,0.00,,---,0.01,VWS V14.01,2014-11-26 11:58:00,
2014-11-26 05:03:00,27.6,22.5,29.95,NE,56,2.0,2.0,81,0.00,,---,0.01,VWS V14.01,2014-11-26 12:03:00,
2014-11-26 05:08:00,27.6,22.5,29.95,NE,48,0.0,1.0,81,0.00,,---,0.01,VWS V14.01,2014-11-26 12:08:00,
2014-11-26 05:13:00,27.6,22.5,30.04,NE,48,0.0,0.0,81,0.00,,---,0.01,VWS V14.01,2014-11-26 12:13:00,
2014-11-26 05:18:00,27.6,22.5,29.85,NE,48,0.0,0.0,81,0.00,,---,0.01,VWS V14.01,2014-11-26 12:18:00,
2014-11-26 05:23:00,27.6,22.2,29.86,NE,48,0.0,0.0,80,0.00,,---,0.01,VWS V14.01,2014-11-26 12:23:00,
2014-11-26 05:28:00,27.5,22.1,29.87,NE,48,0.0,0.0,80,0.00,,---,0.01,VWS V14.01,2014-11-26 12:28:00,
2014-11-26 05:33:00,27.5,21.9,29.86,NE,48,0.0,1.0,79,0.00,,---,0.01,VWS V14.01,2014-11-26 12:33:00,
2014-11-26 05:38:00,27.5,21.9,29.85,NE,48,1.0,2.0,79,0.00,,---,0.01,VWS V14.01,2014-11-26 12:38:00,
2014-11-26 05:43:00,27.5,21.9,29.86,NE,48,1.0,3.0,79,0.00,,---,0.01,VWS V14.01,2014-11-26 12:43:00,
2014-11-26 05:48:00,27.5,21.9,29.86,NE,52,1.0,2.0,79,0.00,,---,0.01,VWS V14.01,2014-11-26 12:48:00,
2014-11-26 05:53:00,27.5,21.5,29.86,NE,52,2.0,2.0,78,0.00,,---,0.01,VWS V14.01,2014-11-26 12:53:00,
2014-11-26 05:58:00,27.4,21.5,29.86,NE,52,0.0,0.0,78,0.00,,---,0.01,VWS V14.01,2014-11-26 12:58:00,
2014-11-26 06:03:00,27.4,21.5,29.87,NE,52,0.0,0.0,78,0.00,,---,0.01,VWS V14.01,2014-11-26 13:03:00,
2014-11-26 06:08:00,27.4,21.1,29.86,NE,52,0.0,0.0,77,0.00,,---,0.01,VWS V14.01,2014-11-26 13:08:00,
2014-11-26 06:13:00,27.4,21.5,29.86,NE,52,1.0,3.0,78,0.00,,---,0.01,VWS V14.01,2014-11-26 13:13:00,
2014-11-26 06:18:00,27.4,21.1,29.86,NE,52,0.0,3.0,77,0.00,,---,0.01,VWS V14.01,2014-11-26 13:18:00,
2014-11-26 06:23:00,27.4,21.1,29.87,NE,52,1.0,2.0,77,0.00,,---,0.01,VWS V14.01,2014-11-26 13:23:00,
2014-11-26 06:28:00,27.4,21.1,29.86,NE,52,0.0,0.0,77,0.00,,---,0.01,VWS V14.01,2014-11-26 13:28:00,
2014-11-26 06:33:00,27.5,21.2,29.86,NE,52,0.0,0.0,77,0.00,,---,0.01,VWS V14.01,2014-11-26 13:33:00,
2014-11-26 06:38:00,27.5,21.2,29.87,NE,52,1.0,2.0,77,0.00,,---,0.01,VWS V14.01,2014-11-26 13:38:00,
2014-11-26 06:43:00,27.5,21.2,29.87,ENE,61,0.0,0.0,77,0.00,,---,0.01,VWS V14.01,2014-11-26 13:43:00,
2014-11-26 06:48:00,27.5,21.2,29.87,East,101,0.0,1.0,77,0.00,,---,0.01,VWS V14.01,2014-11-26 13:48:00,
2014-11-26 06:53:00,27.5,20.9,29.87,East,98,2.0,2.0,76,0.00,,---,0.01,VWS V14.01,2014-11-26 13:53:00,
2014-11-26 06:58:00,27.5,20.6,29.86,East,98,0.0,0.0,75,0.00,,---,0.01,VWS V14.01,2014-11-26 13:58:00,
2014-11-26 07:03:00,27.4,20.5,29.87,East,99,1.0,2.0,75,0.00,,---,0.01,VWS V14.01,2014-11-26 14:03:00,
2014-11-26 07:08:00,27.4,20.5,29.95,ESE,114,0.0,4.0,75,0.00,,---,0.01,VWS V14.01,2014-11-26 14:08:00,
2014-11-26 07:13:00,27.3,20.4,29.95,ESE,110,0.0,0.0,75,0.00,,---,0.01,VWS V14.01,2014-11-26 14:13:00,
2014-11-26 07:18:00,27.2,20.3,29.95,ESE,103,0.0,0.0,75,0.00,,---,0.01,VWS V14.01,2014-11-26 14:18:00,
2014-11-26 07:23:00,27.2,20.3,29.95,ESE,103,0.0,0.0,75,0.00,,---,0.01,VWS V14.01,2014-11-26 14:23:00,
2014-11-26 07:28:00,27.3,20.8,29.86,ESE,103,0.0,0.0,76,0.00,,---,0.01,VWS V14.01,2014-11-26 14:28:00,
2014-11-26 07:33:00,27.4,20.8,29.86,ESE,109,1.0,4.0,76,0.00,,---,0.01,VWS V14.01,2014-11-26 14:33:00,
2014-11-26 07:38:00,27.5,20.6,30.22,ESE,102,2.0,2.0,75,0.00,,---,0.01,VWS V14.01,2014-11-26 14:38:00,
2014-11-26 07:43:00,27.7,20.8,30.22,SE,144,3.0,4.0,75,0.00,,---,0.01,VWS V14.01,2014-11-26 14:43:00,
2014-11-26 07:48:00,27.8,20.6,30.02,ESE,113,0.0,0.0,74,0.00,,---,0.01,VWS V14.01,2014-11-26 14:48:00,
2014-11-26 07:53:00,27.9,20.7,30.03,ESE,106,0.0,0.0,74,0.00,,---,0.01,VWS V14.01,2014-11-26 14:53:00,
2014-11-26 07:58:00,28.0,21.1,30.08,SE,140,1.0,4.0,75,0.00,,---,0.01,VWS V14.01,2014-11-26 14:58:00,
2014-11-26 08:03:00,28.1,21.2,30.08,South,182,3.0,6.0,75,0.00,,---,0.01,VWS V14.01,2014-11-26 15:03:00,
2014-11-26 08:08:00,28.2,21.3,30.08,SE,129,3.0,6.0,75,0.00,,---,0.01,VWS V14.01,2014-11-26 15:08:00,
2014-11-26 08:13:00,28.5,21.6,30.12,SSE,153,6.0,11.0,75,0.00,,---,0.01,VWS V14.01,2014-11-26 15:13:00,
2014-11-26 08:18:00,28.6,21.1,30.12,South,184,4.0,6.0,73,0.00,,---,0.01,VWS V14.01,2014-11-26 15:18:00,
2014-11-26 08:23:00,28.7,21.1,30.12,SSE,156,0.0,3.0,73,0.00,,---,0.01,VWS V14.01,2014-11-26 15:23:00,
2014-11-26 08:28:00,28.8,21.2,30.12,South,179,6.0,7.0,73,0.00,,---,0.01,VWS V14.01,2014-11-26 15:28:00,
2014-11-26 08:33:00,29.0,21.4,30.12,SSE,150,4.0,4.0,73,0.00,,---,0.01,VWS V14.01,2014-11-26 15:33:00,
2014-11-26 08:38:00,29.2,21.3,30.16,South,172,6.0,8.0,72,0.00,,---,0.01,VWS V14.01,2014-11-26 15:38:00,
2014-11-26 08:43:00,29.3,21.1,30.05,SSE,150,6.0,12.0,71,0.00,,---,0.01,VWS V14.01,2014-11-26 15:43:00,
2014-11-26 08:48:00,29.4,21.2,30.05,SE,138,2.0,13.0,71,0.00,,---,0.01,VWS V14.01,2014-11-26 15:48:00,
2014-11-26 08:53:00,29.6,21.7,29.85,ESE,106,4.0,4.0,72,0.00,,---,0.01,VWS V14.01,2014-11-26 15:53:00,
2014-11-26 08:58:00,29.9,22.0,29.85,East,85,4.0,4.0,72,0.00,,---,0.01,VWS V14.01,2014-11-26 15:58:00,
2014-11-26 09:03:00,30.1,22.2,29.85,ESE,111,1.0,4.0,72,0.00,,---,0.01,VWS V14.01,2014-11-26 16:03:00,
2014-11-26 09:08:00,30.6,22.3,29.86,ESE,120,3.0,9.0,71,0.00,,---,0.01,VWS V14.01,2014-11-26 16:08:00,
2014-11-26 09:13:00,31.1,22.5,29.86,East,85,2.0,3.0,70,0.00,,---,0.01,VWS V14.01,2014-11-26 16:13:00,
2014-11-26 09:18:00,31.5,22.5,29.86,East,96,0.0,2.0,69,0.00,,---,0.01,VWS V14.01,2014-11-26 16:18:00,
2014-11-26 09:23:00,31.7,22.7,29.86,ESE,119,7.0,7.0,69,0.00,,---,0.01,VWS V14.01,2014-11-26 16:23:00,
2014-11-26 09:28:00,32.0,22.6,29.86,South,173,4.0,6.0,68,0.00,,---,0.01,VWS V14.01,2014-11-26 16:28:00,
2014-11-26 09:33:00,32.4,23.0,29.86,ESE,106,0.0,3.0,68,0.00,,---,0.01,VWS V14.01,2014-11-26 16:33:00,
2014-11-26 09:38:00,32.9,23.5,29.86,ENE,77,2.0,4.0,68,0.00,,---,0.01,VWS V14.01,2014-11-26 16:38:00,
2014-11-26 09:43:00,33.2,23.5,29.86,SE,145,7.0,7.0,67,0.00,,---,0.01,VWS V14.01,2014-11-26 16:43:00,
2014-11-26 09:48:00,33.7,23.9,30.64,ESE,109,0.0,4.0,67,0.00,,---,0.01,VWS V14.01,2014-11-26 16:48:00,
2014-11-26 09:53:00,34.0,23.1,30.64,ESE,115,0.0,3.0,64,0.00,,---,0.01,VWS V14.01,2014-11-26 16:53:00,
2014-11-26 09:58:00,34.2,23.7,30.64,ESE,105,4.0,4.0,65,0.00,,---,0.01,VWS V14.01,2014-11-26 16:58:00,
2014-11-26 10:03:00,34.4,23.9,30.61,SE,130,0.0,0.0,65,0.00,,---,0.01,VWS V14.01,2014-11-26 17:03:00,
2014-11-26 10:08:00,34.4,23.9,30.61,SE,129,0.0,1.0,65,0.00,,---,0.01,VWS V14.01,2014-11-26 17:08:00,
2014-11-26 10:13:00,35.1,24.2,30.43,ESE,108,2.0,3.0,64,0.00,,---,0.01,VWS V14.01,2014-11-26 17:13:00,
2014-11-26 10:18:00,35.8,24.5,30.28,NNE,29,3.0,4.0,63,0.00,,---,0.01,VWS V14.01,2014-11-26 17:18:00,
2014-11-26 10:23:00,36.2,24.8,30.16,NNE,30,5.0,6.0,63,0.00,,---,0.01,VWS V14.01,2014-11-26 17:23:00,
2014-11-26 10:28:00,36.3,24.5,30.33,NNE,26,2.0,5.0,62,0.00,,---,0.01,VWS V14.01,2014-11-26 17:28:00,
2014-11-26 10:33:00,36.4,24.2,30.33,NE,53,0.0,0.0,61,0.00,,---,0.01,VWS V14.01,2014-11-26 17:33:00,
2014-11-26 10:38:00,36.5,24.7,30.43,ENE,57,4.0,4.0,62,0.00,,---,0.01,VWS V14.01,2014-11-26 17:38:00,
2014-11-26 10:43:00,36.6,24.4,30.43,NNE,15,1.0,4.0,61,0.00,,---,0.01,VWS V14.01,2014-11-26 17:43:00,
2014-11-26 10:48:00,37.0,24.8,30.43,NNE,16,2.0,4.0,61,0.00,,---,0.01,VWS V14.01,2014-11-26 17:48:00,
2014-11-26 10:53:00,37.5,24.9,30.43,NNE,16,0.0,0.0,60,0.00,,---,0.01,VWS V14.01,2014-11-26 17:53:00,
2014-11-26 10:58:00,37.8,25.2,30.43,NE,36,0.0,4.0,60,0.00,,---,0.01,VWS V14.01,2014-11-26 17:58:00,
2014-11-26 11:03:00,38.0,25.0,30.43,NE,44,0.0,2.0,59,0.00,,---,0.01,VWS V14.01,2014-11-26 18:03:00,
2014-11-26 11:08:00,38.4,25.7,30.43,NNE,32,4.0,5.0,60,0.00,,---,0.01,VWS V14.01,2014-11-26 18:08:00,
2014-11-26 11:13:00,38.6,25.1,30.43,NNE,32,0.0,0.0,58,0.00,,---,0.01,VWS V14.01,2014-11-26 18:13:00,
2014-11-26 11:18:00,39.3,25.8,30.43,NNE,31,0.0,0.0,58,0.00,,---,0.01,VWS V14.01,2014-11-26 18:18:00,
2014-11-26 11:23:00,39.6,26.9,30.43,WNW,284,2.0,2.0,60,0.00,,---,0.01,VWS V14.01,2014-11-26 18:23:00,
2014-11-26 11:28:00,39.8,27.1,30.43,WNW,284,0.0,0.0,60,0.00,,---,0.01,VWS V14.01,2014-11-26 18:28:00,
2014-11-26 11:33:00,39.6,26.1,30.04,WNW,288,1.0,2.0,58,0.00,,---,0.01,VWS V14.01,2014-11-26 18:33:00,
2014-11-26 11:38:00,40.0,26.8,30.04,NW,304,2.0,3.0,59,0.00,,---,0.01,VWS V14.01,2014-11-26 18:38:00,
2014-11-26 11:43:00,40.2,26.2,30.04,NW,304,0.0,0.0,57,0.00,,---,0.01,VWS V14.01,2014-11-26 18:43:00,
2014-11-26 11:48:00,40.3,27.1,30.17,NW,304,2.0,2.0,59,0.00,,---,0.01,VWS V14.01,2014-11-26 18:48:00,
2014-11-26 11:53:00,40.4,26.0,30.27,NW,306,2.0,2.0,56,0.00,,---,0.01,VWS V14.01,2014-11-26 18:53:00,